Time,TemperatureF,DewpointF,PressureIn,WindDirection,WindDirectionDegrees,WindSpeedMPH,WindSpeedGustMPH,Humidity,HourlyPrecipIn,Conditions,Clouds,dailyrainin,SoftwareType,DateUTC
2013-05-20 00:01:00,76.1,70.1,30.12,ESE,112,3.4,5.5,81,0.00,,,0.00,JAVA,2013-05-20 04:01:00,
2013-05-20 00:02:00,76.0,70.1,30.13,SE,135,3.8,5.5,81,0.00,,,0.00,JAVA,2013-05-20 04:02:00,
2013-05-20 00:03:00,76.0,70.1,30.13,SSE,157,3.7,5.5,81,0.00,,,0.00,JAVA,2013-05-20 04:03:00,
2013-05-20 00:04:00,76.0,70.1,30.12,SE,135,3.3,5.5,81,0.00,,,0.00,JAVA,2013-05-20 04:04:00,
2013-05-20 00:09:00,76.0,70.0,30.12,SE,135,1.4,2.8,81,0.00,,,0.00,JAVA,2013-05-20 04:09:00,
2013-05-20 00:14:00,75.9,70.0,30.12,SE,135,1.5,3.0,81,0.00,,,0.00,JAVA,2013-05-20 04:14:00,
2013-05-20 00:19:00,75.8,69.9,30.12,SE,135,0.8,1.5,81,0.00,,,0.00,JAVA,2013-05-20 04:19:00,
2013-05-20 00:24:00,75.7,69.8,30.11,ESE,112,1.4,2.1,81,0.00,,,0.00,JAVA,2013-05-20 04:24:00,
2013-05-20 00:29:00,75.7,69.7,30.11,East,90,1.4,2.4,81,0.00,,,0.00,JAVA,2013-05-20 04:29:00,
2013-05-20 00:34:00,75.7,69.7,30.11,ESE,112,1.6,3.2,81,0.00,,,0.00,JAVA,2013-05-20 04:34:00,
2013-05-20 00:40:00,75.5,69.6,30.12,East,90,1.3,2.8,81,0.00,,,0.00,JAVA,2013-05-20 04:40:00,
2013-05-20 00:45:00,75.5,69.6,30.11,East,90,1.1,2.8,81,0.00,,,0.00,JAVA,2013-05-20 04:45:00,
2013-05-20 00:50:00,75.5,69.6,30.11,ESE,112,1.3,2.5,82,0.00,,,0.00,JAVA,2013-05-20 04:50:00,
2013-05-20 00:55:00,75.4,69.6,30.11,East,90,1.4,2.1,82,0.00,,,0.00,JAVA,2013-05-20 04:55:00,
2013-05-20 01:00:00,75.4,69.6,30.11,East,90,0.5,1.7,82,0.00,,,0.00,JAVA,2013-05-20 05:00:00,
2013-05-20 01:05:00,75.3,69.6,30.11,ESE,112,0.9,2.2,82,0.00,,,0.00,JAVA,2013-05-20 05:05:00,
2013-05-20 01:11:00,75.3,69.6,30.11,East,90,0.6,1.7,82,0.00,,,0.00,JAVA,2013-05-20 05:11:00,
2013-05-20 01:16:00,75.3,69.6,30.11,ESE,112,1.3,2.5,82,0.00,,,0.00,JAVA,2013-05-20 05:16:00,
2013-05-20 01:21:00,75.4,69.7,30.11,ESE,112,0.3,2.4,82,0.00,,,0.00,JAVA,2013-05-20 05:21:00,
2013-05-20 01:26:00,75.4,69.7,30.11,ESE,112,0.4,0.9,82,0.00,,,0.00,JAVA,2013-05-20 05:26:00,
2013-05-20 01:31:00,75.3,69.7,30.11,ESE,112,0.3,1.0,82,0.00,,,0.00,JAVA,2013-05-20 05:31:00,
2013-05-20 01:36:00,75.2,69.7,30.11,East,90,0.1,0.7,83,0.00,,,0.00,JAVA,2013-05-20 05:36:00,
2013-05-20 01:41:00,75.0,69.7,30.10,WNW,292,0.1,0.4,83,0.00,,,0.00,JAVA,2013-05-20 05:41:00,
2013-05-20 01:46:00,75.0,69.7,30.10,SE,135,0.3,1.2,82,0.00,,,0.00,JAVA,2013-05-20 05:46:00,
2013-05-20 01:51:00,75.0,69.6,30.09,SE,135,0.2,0.8,83,0.00,,,0.00,JAVA,2013-05-20 05:51:00,
2013-05-20 01:56:00,75.1,69.6,30.09,ESE,112,0.4,0.7,83,0.00,,,0.00,JAVA,2013-05-20 05:56:00,
2013-05-20 02:01:00,75.1,69.6,30.08,SE,135,0.6,1.2,83,0.00,,,0.00,JAVA,2013-05-20 06:01:00,
2013-05-20 02:07:00,75.1,69.6,30.08,ESE,112,0.5,1.6,83,0.00,,,0.00,JAVA,2013-05-20 06:07:00,
2013-05-20 02:12:00,75.2,69.6,30.08,SE,135,1.0,1.6,83,0.00,,,0.00,JAVA,2013-05-20 06:12:00,
2013-05-20 02:17:00,75.1,69.6,30.08,East,90,0.2,0.8,83,0.00,,,0.00,JAVA,2013-05-20 06:17:00,
2013-05-20 02:22:00,75.0,69.6,30.08,NE,45,0.0,0.3,83,0.00,,,0.00,JAVA,2013-05-20 06:22:00,
2013-05-20 02:27:00,74.8,69.6,30.07,East,90,0.0,0.0,83,0.00,,,0.00,JAVA,2013-05-20 06:27:00,
2013-05-20 02:32:00,74.8,69.6,30.07,East,90,0.0,0.4,83,0.00,,,0.00,JAVA,2013-05-20 06:32:00,
2013-05-20 02:37:00,74.4,69.6,30.07,ENE,67,0.0,0.0,83,0.00,,,0.00,JAVA,2013-05-20 06:37:00,
2013-05-20 02:42:00,74.2,69.6,30.07,East,90,0.0,0.0,83,0.00,,,0.00,JAVA,2013-05-20 06:42:00,
2013-05-20 02:47:00,73.9,69.5,30.07,East,90,0.1,0.7,83,0.00,,,0.00,JAVA,2013-05-20 06:47:00,
2013-05-20 02:52:00,73.6,69.3,30.06,East,90,0.0,0.0,83,0.00,,,0.00,JAVA,2013-05-20 06:52:00,
2013-05-20 02:57:00,73.4,69.2,30.07,ESE,112,0.0,0.0,83,0.00,,,0.00,JAVA,2013-05-20 06:57:00,
2013-05-20 03:02:00,73.4,69.0,30.06,East,90,0.0,0.1,83,0.00,,,0.00,JAVA,2013-05-20 07:02:00,
2013-05-20 03:08:00,73.3,68.8,30.06,East,90,0.0,0.0,83,0.00,,,0.00,JAVA,2013-05-20 07:08:00,
2013-05-20 03:13:00,73.1,68.6,30.07,ESE,112,0.0,0.0,83,0.00,,,0.00,JAVA,2013-05-20 07:13:00,
2013-05-20 03:18:00,73.2,68.4,30.06,South,180,0.0,0.0,84,0.00,,,0.00,JAVA,2013-05-20 07:18:00,
2013-05-20 03:23:00,73.4,68.3,30.06,South,180,0.4,1.9,84,0.00,,,0.00,JAVA,2013-05-20 07:23:00,
2013-05-20 03:28:00,73.5,68.2,30.06,South,180,0.0,0.0,84,0.00,,,0.00,JAVA,2013-05-20 07:28:00,
2013-05-20 03:33:00,73.5,68.3,30.06,SE,135,0.0,0.0,85,0.00,,,0.00,JAVA,2013-05-20 07:33:00,
2013-05-20 03:38:00,73.4,68.3,30.06,ESE,112,0.0,0.0,85,0.00,,,0.00,JAVA,2013-05-20 07:38:00,
2013-05-20 03:43:00,73.2,68.4,30.06,East,90,0.0,0.0,85,0.00,,,0.00,JAVA,2013-05-20 07:43:00,
2013-05-20 03:48:00,73.2,68.4,30.06,East,90,0.0,0.0,86,0.00,,,0.00,JAVA,2013-05-20 07:48:00,
2013-05-20 03:53:00,73.1,68.5,30.05,NE,45,0.0,0.0,86,0.00,,,0.00,JAVA,2013-05-20 07:53:00,
2013-05-20 03:58:00,72.9,68.6,30.05,NE,45,0.0,0.0,86,0.00,,,0.00,JAVA,2013-05-20 07:58:00,
2013-05-20 04:03:00,72.8,68.7,30.05,NE,45,0.0,0.0,86,0.00,,,0.00,JAVA,2013-05-20 08:03:00,
2013-05-20 04:08:00,72.7,68.7,30.05,SE,135,0.0,0.0,86,0.00,,,0.00,JAVA,2013-05-20 08:08:00,
2013-05-20 04:14:00,72.6,68.7,30.06,East,90,0.0,0.0,86,0.00,,,0.00,JAVA,2013-05-20 08:14:00,
2013-05-20 04:19:00,72.5,68.7,30.05,East,90,0.0,0.0,86,0.00,,,0.00,JAVA,2013-05-20 08:19:00,
2013-05-20 04:24:00,72.3,68.6,30.06,South,180,0.0,0.0,87,0.00,,,0.00,JAVA,2013-05-20 08:24:00,
2013-05-20 04:29:00,72.2,68.5,30.06,WNW,292,0.0,0.0,87,0.00,,,0.00,JAVA,2013-05-20 08:29:00,
2013-05-20 04:34:00,72.2,68.4,30.06,NW,315,0.0,0.0,87,0.00,,,0.00,JAVA,2013-05-20 08:34:00,
2013-05-20 04:39:00,71.9,68.4,30.05,NE,45,0.0,0.0,87,0.00,,,0.00,JAVA,2013-05-20 08:39:00,
2013-05-20 04:44:00,71.8,68.3,30.05,NE,45,0.0,0.0,87,0.00,,,0.00,JAVA,2013-05-20 08:44:00,
2013-05-20 04:49:00,71.8,68.2,30.05,NE,45,0.0,0.0,87,0.00,,,0.00,JAVA,2013-05-20 08:49:00,
2013-05-20 04:54:00,71.7,68.1,30.05,NE,45,0.0,0.0,87,0.00,,,0.00,JAVA,2013-05-20 08:54:00,
2013-05-20 04:59:00,71.5,68.0,30.05,NE,45,0.0,0.0,87,0.00,,,0.00,JAVA,2013-05-20 08:59:00,
2013-05-20 05:04:00,71.3,67.9,30.05,East,90,0.0,0.0,87,0.00,,,0.00,JAVA,2013-05-20 09:04:00,
2013-05-20 05:09:00,71.4,67.8,30.05,ESE,112,0.1,0.2,88,0.00,,,0.00,JAVA,2013-05-20 09:09:00,
2013-05-20 05:15:00,71.6,67.8,30.04,East,90,0.0,0.4,88,0.00,,,0.00,JAVA,2013-05-20 09:15:00,
2013-05-20 05:20:00,71.7,67.8,30.05,East,90,0.3,0.4,88,0.00,,,0.00,JAVA,2013-05-20 09:20:00,
2013-05-20 05:25:00,71.9,67.8,30.05,ESE,112,0.6,1.4,89,0.00,,,0.00,JAVA,2013-05-20 09:25:00,
2013-05-20 05:30:00,72.1,67.9,30.04,SSW,202,0.3,1.1,89,0.00,,,0.00,JAVA,2013-05-20 09:30:00,
2013-05-20 05:35:00,72.1,68.0,30.05,NE,45,0.0,0.0,89,0.00,,,0.00,JAVA,2013-05-20 09:35:00,
2013-05-20 05:40:00,72.1,68.1,30.05,SE,135,0.0,0.0,89,0.00,,,0.00,JAVA,2013-05-20 09:40:00,
2013-05-20 05:45:00,72.2,68.3,30.06,East,90,0.2,0.9,90,0.00,,,0.00,JAVA,2013-05-20 09:45:00,
2013-05-20 05:50:00,72.4,68.5,30.06,SE,135,0.3,0.9,90,0.00,,,0.00,JAVA,2013-05-20 09:50:00,
2013-05-20 05:55:00,72.5,68.7,30.06,East,90,0.1,0.2,90,0.00,,,0.00,JAVA,2013-05-20 09:55:00,
2013-05-20 06:00:00,72.5,68.9,30.06,NE,45,0.0,0.0,90,0.00,,,0.00,JAVA,2013-05-20 10:00:00,
2013-05-20 06:05:00,72.4,69.1,30.06,East,90,0.0,0.0,90,0.00,,,0.00,JAVA,2013-05-20 10:05:00,
2013-05-20 06:10:00,72.3,69.2,30.07,East,90,0.0,0.0,90,0.00,,,0.00,JAVA,2013-05-20 10:10:00,
2013-05-20 06:16:00,72.2,69.3,30.07,East,90,0.0,0.0,91,0.00,,,0.00,JAVA,2013-05-20 10:16:00,
2013-05-20 06:21:00,72.1,69.3,30.08,East,90,0.0,0.0,91,0.00,,,0.00,JAVA,2013-05-20 10:21:00,
2013-05-20 06:26:00,72.1,69.4,30.07,East,90,0.0,0.0,91,0.00,,,0.00,JAVA,2013-05-20 10:26:00,
2013-05-20 06:31:00,71.9,69.4,30.08,NE,45,0.0,0.0,91,0.00,,,0.00,JAVA,2013-05-20 10:31:00,
2013-05-20 06:36:00,71.9,69.4,30.08,ENE,67,0.0,0.0,91,0.00,,,0.00,JAVA,2013-05-20 10:36:00,
2013-05-20 06:41:00,71.9,69.3,30.08,NE,45,0.0,0.0,91,0.00,,,0.00,JAVA,2013-05-20 10:41:00,
2013-05-20 06:46:00,72.1,69.3,30.08,NE,45,0.0,0.0,91,0.00,,,0.00,JAVA,2013-05-20 10:46:00,
2013-05-20 06:51:00,72.2,69.2,30.08,North,0,0.0,0.0,91,0.00,,,0.00,JAVA,2013-05-20 10:51:00,
2013-05-20 06:56:00,72.2,69.2,30.09,North,0,0.0,0.0,91,0.00,,,0.00,JAVA,2013-05-20 10:56:00,
2013-05-20 07:01:00,72.2,69.2,30.08,North,0,0.0,0.0,91,0.00,,,0.00,JAVA,2013-05-20 11:01:00,
2013-05-20 07:06:00,72.2,69.3,30.08,ENE,67,0.0,0.0,91,0.00,,,0.00,JAVA,2013-05-20 11:06:00,
2013-05-20 07:11:00,72.2,69.3,30.08,NE,45,0.0,0.0,91,0.00,,,0.00,JAVA,2013-05-20 11:11:00,
2013-05-20 07:16:00,72.2,69.3,30.09,ENE,67,0.0,0.0,91,0.00,,,0.00,JAVA,2013-05-20 11:16:00,
2013-05-20 07:22:00,72.4,69.4,30.09,SE,135,0.0,0.5,91,0.00,,,0.00,JAVA,2013-05-20 11:22:00,
2013-05-20 07:27:00,72.4,69.5,30.10,SE,135,0.0,0.0,91,0.00,,,0.00,JAVA,2013-05-20 11:27:00,
2013-05-20 07:32:00,72.5,69.5,30.09,SE,135,0.0,0.2,91,0.00,,,0.00,JAVA,2013-05-20 11:32:00,
2013-05-20 07:37:00,72.5,69.6,30.09,North,0,0.0,0.0,92,0.00,,,0.00,JAVA,2013-05-20 11:37:00,
2013-05-20 07:42:00,72.6,69.7,30.10,WNW,292,0.0,0.0,92,0.00,,,0.00,JAVA,2013-05-20 11:42:00,
2013-05-20 07:47:00,72.7,69.8,30.10,NW,315,0.0,0.0,92,0.00,,,0.00,JAVA,2013-05-20 11:47:00,
2013-05-20 07:52:00,72.8,69.9,30.10,NW,315,0.0,0.0,92,0.00,,,0.00,JAVA,2013-05-20 11:52:00,
2013-05-20 07:57:00,73.1,70.0,30.11,North,0,0.0,0.0,92,0.00,,,0.00,JAVA,2013-05-20 11:57:00,
2013-05-20 08:02:00,73.3,70.1,30.11,NE,45,0.0,0.0,92,0.00,,,0.00,JAVA,2013-05-20 12:02:00,
2013-05-20 08:07:00,73.5,70.3,30.11,NE,45,0.0,0.0,92,0.00,,,0.00,JAVA,2013-05-20 12:07:00,
2013-05-20 08:12:00,73.7,70.5,30.12,NE,45,0.0,0.0,92,0.00,,,0.00,JAVA,2013-05-20 12:12:00,
2013-05-20 08:17:00,73.9,70.6,30.11,North,0,0.0,0.0,92,0.00,,,0.00,JAVA,2013-05-20 12:17:00,
2013-05-20 08:23:00,74.0,70.8,30.11,NW,315,0.0,0.0,92,0.00,,,0.00,JAVA,2013-05-20 12:23:00,
2013-05-20 08:28:00,74.1,71.0,30.11,NE,45,0.0,0.0,92,0.00,,,0.00,JAVA,2013-05-20 12:28:00,
2013-05-20 08:33:00,74.3,71.2,30.12,NE,45,0.0,0.0,92,0.00,,,0.00,JAVA,2013-05-20 12:33:00,
2013-05-20 08:38:00,74.5,71.4,30.12,NNE,22,0.0,0.0,92,0.00,,,0.00,JAVA,2013-05-20 12:38:00,
2013-05-20 08:43:00,74.6,71.6,30.11,North,0,0.1,0.6,92,0.00,,,0.00,JAVA,2013-05-20 12:43:00,
2013-05-20 08:48:00,74.8,71.7,30.12,NW,315,0.3,1.3,92,0.00,,,0.00,JAVA,2013-05-20 12:48:00,
2013-05-20 08:53:00,75.0,71.9,30.12,WSW,247,0.3,0.8,92,0.00,,,0.00,JAVA,2013-05-20 12:53:00,
2013-05-20 08:58:00,75.4,72.1,30.12,SW,225,0.3,0.8,92,0.00,,,0.00,JAVA,2013-05-20 12:58:00,
2013-05-20 09:03:00,75.8,72.3,30.12,South,180,1.4,2.1,92,0.00,,,0.00,JAVA,2013-05-20 13:03:00,
2013-05-20 09:08:00,76.0,72.5,30.12,NNW,337,0.5,1.2,92,0.00,,,0.00,JAVA,2013-05-20 13:08:00,
2013-05-20 09:13:00,76.1,72.7,30.12,SSW,202,0.9,1.7,91,0.00,,,0.00,JAVA,2013-05-20 13:13:00,
2013-05-20 09:18:00,76.0,72.8,30.12,NW,315,0.5,1.6,91,0.00,,,0.00,JAVA,2013-05-20 13:18:00,
2013-05-20 09:24:00,76.0,72.9,30.12,NNW,337,0.4,1.6,90,0.00,,,0.00,JAVA,2013-05-20 13:24:00,
2013-05-20 09:29:00,76.1,73.0,30.12,SW,225,0.0,0.0,89,0.00,,,0.00,JAVA,2013-05-20 13:29:00,
2013-05-20 09:34:00,76.3,73.0,30.12,NW,315,0.9,1.8,88,0.00,,,0.00,JAVA,2013-05-20 13:34:00,
2013-05-20 09:39:00,76.6,73.0,30.11,North,0,0.4,1.0,86,0.00,,,0.00,JAVA,2013-05-20 13:39:00,
2013-05-20 09:44:00,76.8,72.9,30.12,West,270,0.0,0.0,85,0.00,,,0.00,JAVA,2013-05-20 13:44:00,
2013-05-20 09:49:00,77.1,72.7,30.12,NW,315,1.3,2.1,84,0.00,,,0.00,JAVA,2013-05-20 13:49:00,
2013-05-20 09:54:00,77.4,72.5,30.12,NE,45,0.5,2.4,82,0.00,,,0.00,JAVA,2013-05-20 13:54:00,
2013-05-20 09:59:00,78.1,72.3,30.12,North,0,0.4,0.9,81,0.00,,,0.00,JAVA,2013-05-20 13:59:00,
2013-05-20 10:04:00,78.4,72.1,30.13,North,0,1.6,2.3,79,0.00,,,0.00,JAVA,2013-05-20 14:04:00,
2013-05-20 10:09:00,78.7,71.9,30.13,North,0,0.3,1.7,78,0.00,,,0.00,JAVA,2013-05-20 14:09:00,
2013-05-20 10:14:00,79.3,71.8,30.12,North,0,1.3,2.3,77,0.00,,,0.00,JAVA,2013-05-20 14:14:00,
2013-05-20 10:19:00,79.6,71.7,30.12,NNE,22,0.7,1.6,77,0.00,,,0.00,JAVA,2013-05-20 14:19:00,
2013-05-20 10:24:00,79.8,71.7,30.12,NE,45,1.2,2.7,76,0.00,,,0.00,JAVA,2013-05-20 14:24:00,
2013-05-20 10:29:00,79.9,71.6,30.12,NE,45,1.3,2.9,75,0.00,,,0.00,JAVA,2013-05-20 14:29:00,
2013-05-20 10:35:00,80.0,71.6,30.13,South,180,1.4,2.3,75,0.00,,,0.00,JAVA,2013-05-20 14:35:00,
2013-05-20 10:40:00,79.9,71.5,30.13,North,0,1.5,2.5,74,0.00,,,0.00,JAVA,2013-05-20 14:40:00,
2013-05-20 10:45:00,80.3,71.5,30.12,SE,135,1.2,3.3,74,0.00,,,0.00,JAVA,2013-05-20 14:45:00,
2013-05-20 10:50:00,80.5,71.4,30.13,East,90,2.0,3.1,73,0.00,,,0.00,JAVA,2013-05-20 14:50:00,
2013-05-20 10:55:00,80.8,71.4,30.13,NNE,22,1.8,3.5,72,0.00,,,0.00,JAVA,2013-05-20 14:55:00,
2013-05-20 11:00:00,80.4,71.3,30.14,East,90,3.0,5.0,71,0.00,,,0.00,JAVA,2013-05-20 15:00:00,
2013-05-20 11:05:00,79.4,71.1,30.13,SE,135,3.9,6.3,71,0.00,,,0.00,JAVA,2013-05-20 15:05:00,
2013-05-20 11:10:00,78.5,70.7,30.13,South,180,1.8,3.2,70,0.00,,,0.00,JAVA,2013-05-20 15:10:00,
2013-05-20 11:15:00,77.7,70.3,30.13,SSW,202,2.9,4.4,71,0.00,,,0.00,JAVA,2013-05-20 15:15:00,
2013-05-20 11:20:00,77.1,69.9,30.13,ESE,112,1.1,4.2,72,0.00,,,0.00,JAVA,2013-05-20 15:20:00,
2013-05-20 11:25:00,76.6,69.4,30.13,SSE,157,1.8,3.4,73,0.00,,,0.00,JAVA,2013-05-20 15:25:00,
2013-05-20 11:30:00,76.2,69.0,30.14,SE,135,1.4,2.6,74,0.00,,,0.00,JAVA,2013-05-20 15:30:00,
2013-05-20 11:35:00,76.0,68.6,30.14,SE,135,2.1,4.7,75,0.00,,,0.00,JAVA,2013-05-20 15:35:00,
2013-05-20 11:40:00,75.9,68.2,30.13,SE,135,0.8,2.3,77,0.00,,,0.00,JAVA,2013-05-20 15:40:00,
2013-05-20 11:45:00,75.7,68.0,30.13,SE,135,0.5,1.5,79,0.00,,,0.00,JAVA,2013-05-20 15:45:00,
2013-05-20 11:50:00,75.5,68.0,30.13,SE,135,0.1,0.3,80,0.00,,,0.00,JAVA,2013-05-20 15:50:00,
2013-05-20 11:55:00,75.4,68.1,30.14,SSE,157,1.7,3.2,81,0.00,,,0.00,JAVA,2013-05-20 15:55:00,
2013-05-20 12:00:00,75.0,68.3,30.13,East,90,1.8,3.1,82,0.00,,,0.00,JAVA,2013-05-20 16:00:00,
2013-05-20 12:06:00,74.6,68.5,30.13,SE,135,2.0,2.9,83,0.00,,,0.00,JAVA,2013-05-20 16:06:00,
2013-05-20 12:11:00,74.8,68.7,30.13,ENE,67,1.2,2.7,83,0.00,,,0.00,JAVA,2013-05-20 16:11:00,
2013-05-20 12:16:00,74.9,69.0,30.13,ESE,112,0.6,1.3,84,0.00,,,0.00,JAVA,2013-05-20 16:16:00,
2013-05-20 12:21:00,75.0,69.2,30.13,NE,45,1.0,1.5,85,0.00,,,0.00,JAVA,2013-05-20 16:21:00,
2013-05-20 12:26:00,74.8,69.4,30.14,East,90,1.9,3.5,86,0.00,,,0.00,JAVA,2013-05-20 16:26:00,
2013-05-20 12:31:00,74.9,69.6,30.12,SE,135,1.8,2.8,86,0.00,,,0.00,JAVA,2013-05-20 16:31:00,
2013-05-20 12:36:00,74.9,69.8,30.12,SE,135,1.8,2.8,87,0.00,,,0.00,JAVA,2013-05-20 16:36:00,
2013-05-20 12:41:00,74.5,70.0,30.12,East,90,2.9,4.2,87,0.00,,,0.00,JAVA,2013-05-20 16:41:00,
2013-05-20 12:46:00,74.2,70.1,30.12,East,90,3.5,4.8,87,0.00,,,0.00,JAVA,2013-05-20 16:46:00,
2013-05-20 12:51:00,74.1,70.2,30.12,ESE,112,2.8,4.2,87,0.00,,,0.00,JAVA,2013-05-20 16:51:00,
2013-05-20 12:56:00,74.0,70.3,30.12,SE,135,2.7,4.1,88,0.00,,,0.00,JAVA,2013-05-20 16:56:00,
2013-05-20 13:01:00,73.5,70.3,30.12,WSW,247,3.3,4.9,88,0.00,,,0.00,JAVA,2013-05-20 17:01:00,
2013-05-20 13:06:00,73.6,70.2,30.12,ESE,112,2.4,4.0,87,0.00,,,0.00,JAVA,2013-05-20 17:06:00,
2013-05-20 13:11:00,73.7,70.2,30.12,ESE,112,1.6,3.1,87,0.00,,,0.00,JAVA,2013-05-20 17:11:00,
2013-05-20 13:16:00,74.0,70.1,30.12,South,180,1.8,2.8,87,0.00,,,0.00,JAVA,2013-05-20 17:16:00,
2013-05-20 13:21:00,74.2,70.0,30.12,ESE,112,2.3,3.9,87,0.00,,,0.00,JAVA,2013-05-20 17:21:00,
2013-05-20 13:26:00,74.1,70.0,30.12,SE,135,1.7,2.9,87,0.00,,,0.00,JAVA,2013-05-20 17:26:00,
2013-05-20 13:31:00,73.7,70.0,30.12,SE,135,3.0,4.1,86,0.00,,,0.00,JAVA,2013-05-20 17:31:00,
2013-05-20 13:36:00,73.3,69.9,30.12,South,180,2.8,5.5,86,0.00,,,0.00,JAVA,2013-05-20 17:36:00,
2013-05-20 13:42:00,72.8,69.7,30.12,East,90,3.7,6.0,86,0.00,,,0.00,JAVA,2013-05-20 17:42:00,
2013-05-20 13:47:00,72.9,69.5,30.11,East,90,3.7,5.4,86,0.00,,,0.00,JAVA,2013-05-20 17:47:00,
2013-05-20 13:52:00,73.5,69.4,30.11,ESE,112,6.5,9.6,86,0.00,,,0.00,JAVA,2013-05-20 17:52:00,
2013-05-20 13:57:00,74.5,69.4,30.11,ESE,112,5.7,9.0,86,0.00,,,0.00,JAVA,2013-05-20 17:57:00,
2013-05-20 14:02:00,75.0,69.4,30.11,ESE,112,4.4,7.8,85,0.00,,,0.00,JAVA,2013-05-20 18:02:00,
2013-05-20 14:07:00,74.9,69.4,30.11,East,90,3.8,6.9,85,0.00,,,0.00,JAVA,2013-05-20 18:07:00,
2013-05-20 14:12:00,74.8,69.4,30.11,SE,135,4.9,7.1,84,0.00,,,0.00,JAVA,2013-05-20 18:12:00,
2013-05-20 14:17:00,75.0,69.4,30.10,SE,135,3.5,6.1,84,0.00,,,0.00,JAVA,2013-05-20 18:17:00,
2013-05-20 14:22:00,75.5,69.6,30.10,ESE,112,2.9,4.8,84,0.00,,,0.00,JAVA,2013-05-20 18:22:00,
2013-05-20 14:27:00,75.8,69.8,30.11,East,90,3.0,5.8,83,0.00,,,0.00,JAVA,2013-05-20 18:27:00,
2013-05-20 14:32:00,75.8,70.0,30.10,ESE,112,2.1,6.3,83,0.00,,,0.00,JAVA,2013-05-20 18:32:00,
2013-05-20 14:37:00,75.7,70.1,30.10,East,90,3.3,5.6,81,0.00,,,0.00,JAVA,2013-05-20 18:37:00,
2013-05-20 14:42:00,75.7,70.0,30.10,SE,135,2.5,4.6,80,0.00,,,0.00,JAVA,2013-05-20 18:42:00,
2013-05-20 14:47:00,75.8,69.9,30.10,East,90,2.4,3.4,80,0.00,,,0.00,JAVA,2013-05-20 18:47:00,
2013-05-20 14:52:00,76.3,69.8,30.10,NE,45,2.2,3.5,79,0.00,,,0.00,JAVA,2013-05-20 18:52:00,
2013-05-20 14:57:00,76.7,69.8,30.10,NE,45,2.5,4.0,79,0.00,,,0.00,JAVA,2013-05-20 18:57:00,
2013-05-20 15:02:00,76.8,69.7,30.09,ESE,112,2.5,4.7,78,0.00,,,0.00,JAVA,2013-05-20 19:02:00,
2013-05-20 15:08:00,76.6,69.6,30.09,SE,135,3.1,4.8,78,0.00,,,0.00,JAVA,2013-05-20 19:08:00,
2013-05-20 15:13:00,76.4,69.4,30.09,SE,135,3.3,4.4,77,0.00,,,0.00,JAVA,2013-05-20 19:13:00,
2013-05-20 15:18:00,76.7,69.3,30.08,SE,135,3.7,5.3,77,0.00,,,0.00,JAVA,2013-05-20 19:18:00,
2013-05-20 15:23:00,76.6,69.3,30.08,ESE,112,3.9,5.7,77,0.00,,,0.00,JAVA,2013-05-20 19:23:00,
2013-05-20 15:28:00,76.6,69.3,30.08,SE,135,3.1,5.2,77,0.00,,,0.00,JAVA,2013-05-20 19:28:00,
2013-05-20 15:33:00,76.4,69.2,30.07,SE,135,3.4,4.8,77,0.00,,,0.00,JAVA,2013-05-20 19:33:00,
2013-05-20 15:38:00,77.2,69.2,30.07,ESE,112,4.5,6.2,77,0.00,,,0.00,JAVA,2013-05-20 19:38:00,
2013-05-20 15:43:00,78.5,69.2,30.07,ESE,112,3.9,6.4,77,0.00,,,0.00,JAVA,2013-05-20 19:43:00,
2013-05-20 15:48:00,77.9,69.3,30.07,East,90,5.6,8.3,76,0.00,,,0.00,JAVA,2013-05-20 19:48:00,
2013-05-20 15:53:00,77.7,69.4,30.06,SE,135,2.4,4.8,76,0.00,,,0.00,JAVA,2013-05-20 19:53:00,
2013-05-20 15:58:00,78.1,69.5,30.07,ESE,112,2.9,4.5,76,0.00,,,0.00,JAVA,2013-05-20 19:58:00,
2013-05-20 16:03:00,78.2,69.6,30.06,ESE,112,3.0,5.2,76,0.00,,,0.00,JAVA,2013-05-20 20:03:00,
2013-05-20 16:08:00,78.2,69.7,30.06,NE,45,3.7,6.4,75,0.00,,,0.00,JAVA,2013-05-20 20:08:00,
2013-05-20 16:13:00,78.6,69.9,30.06,SE,135,3.7,5.6,75,0.00,,,0.00,JAVA,2013-05-20 20:13:00,
2013-05-20 16:18:00,79.3,70.1,30.06,East,90,3.1,5.5,75,0.00,,,0.00,JAVA,2013-05-20 20:18:00,
2013-05-20 16:23:00,79.3,70.2,30.06,South,180,3.7,5.5,75,0.00,,,0.00,JAVA,2013-05-20 20:23:00,
2013-05-20 16:28:00,79.4,70.3,30.06,SE,135,3.0,4.6,75,0.00,,,0.00,JAVA,2013-05-20 20:28:00,
2013-05-20 16:33:00,80.0,70.4,30.06,North,0,1.9,3.9,75,0.00,,,0.00,JAVA,2013-05-20 20:33:00,
2013-05-20 16:39:00,80.4,70.6,30.06,East,90,2.6,4.1,74,0.00,,,0.00,JAVA,2013-05-20 20:39:00,
2013-05-20 16:44:00,80.5,70.8,30.06,NNW,337,2.1,5.2,74,0.00,,,0.00,JAVA,2013-05-20 20:44:00,
2013-05-20 16:49:00,80.4,71.0,30.06,East,90,4.2,6.4,73,0.00,,,0.00,JAVA,2013-05-20 20:49:00,
2013-05-20 16:54:00,80.3,71.1,30.05,ESE,112,4.1,6.4,72,0.00,,,0.00,JAVA,2013-05-20 20:54:00,
2013-05-20 16:59:00,79.9,71.1,30.05,East,90,4.0,5.5,72,0.00,,,0.00,JAVA,2013-05-20 20:59:00,
2013-05-20 17:04:00,79.7,71.0,30.04,SE,135,3.2,5.5,71,0.00,,,0.00,JAVA,2013-05-20 21:04:00,
2013-05-20 17:09:00,79.8,70.9,30.04,East,90,3.0,5.5,71,0.00,,,0.00,JAVA,2013-05-20 21:09:00,
2013-05-20 17:14:00,80.0,70.7,30.05,SE,135,3.4,5.9,71,0.00,,,0.00,JAVA,2013-05-20 21:14:00,
2013-05-20 17:19:00,79.7,70.5,30.05,East,90,4.2,7.1,70,0.00,,,0.00,JAVA,2013-05-20 21:19:00,
2013-05-20 17:24:00,79.5,70.2,30.05,East,90,2.1,5.0,70,0.00,,,0.00,JAVA,2013-05-20 21:24:00,
2013-05-20 17:29:00,79.3,69.9,30.05,SSE,157,3.4,5.8,71,0.00,,,0.00,JAVA,2013-05-20 21:29:00,
2013-05-20 17:34:00,78.7,69.7,30.05,SE,135,4.0,5.8,71,0.00,,,0.00,JAVA,2013-05-20 21:34:00,
2013-05-20 17:39:00,78.4,69.5,30.05,ESE,112,3.4,6.4,72,0.00,,,0.00,JAVA,2013-05-20 21:39:00,
2013-05-20 17:44:00,78.0,69.3,30.04,ESE,112,4.1,6.6,72,0.00,,,0.00,JAVA,2013-05-20 21:44:00,
2013-05-20 17:49:00,77.8,69.2,30.05,East,90,2.7,3.8,73,0.00,,,0.00,JAVA,2013-05-20 21:49:00,
2013-05-20 17:54:00,77.3,69.0,30.05,East,90,3.8,7.2,73,0.00,,,0.00,JAVA,2013-05-20 21:54:00,
2013-05-20 17:59:00,77.1,68.9,30.06,SE,135,3.7,5.3,74,0.00,,,0.00,JAVA,2013-05-20 21:59:00,
2013-05-20 18:05:00,76.9,68.7,30.06,East,90,3.2,5.2,74,0.00,,,0.00,JAVA,2013-05-20 22:05:00,
2013-05-20 18:10:00,76.8,68.6,30.06,South,180,2.9,5.5,74,0.00,,,0.00,JAVA,2013-05-20 22:10:00,
2013-05-20 18:15:00,76.8,68.5,30.06,East,90,2.2,4.6,75,0.00,,,0.00,JAVA,2013-05-20 22:15:00,
2013-05-20 18:20:00,76.8,68.5,30.05,East,90,2.5,4.2,75,0.00,,,0.00,JAVA,2013-05-20 22:20:00,
2013-05-20 18:25:00,76.8,68.4,30.06,ESE,112,2.4,4.7,75,0.00,,,0.00,JAVA,2013-05-20 22:25:00,
2013-05-20 18:30:00,76.8,68.4,30.06,NE,45,2.1,3.8,76,0.00,,,0.00,JAVA,2013-05-20 22:30:00,
2013-05-20 18:35:00,76.7,68.4,30.06,North,0,1.9,3.7,76,0.00,,,0.00,JAVA,2013-05-20 22:35:00,
2013-05-20 18:40:00,76.7,68.4,30.06,ENE,67,2.8,3.6,76,0.00,,,0.00,JAVA,2013-05-20 22:40:00,
2013-05-20 18:45:00,76.4,68.5,30.06,ENE,67,1.9,3.5,77,0.00,,,0.00,JAVA,2013-05-20 22:45:00,
2013-05-20 18:50:00,76.2,68.6,30.06,East,90,1.8,3.4,77,0.00,,,0.00,JAVA,2013-05-20 22:50:00,
2013-05-20 18:55:00,76.0,68.7,30.06,NNE,22,2.7,4.2,78,0.00,,,0.00,JAVA,2013-05-20 22:55:00,
2013-05-20 19:00:00,76.0,68.8,30.06,East,90,2.3,2.9,78,0.00,,,0.00,JAVA,2013-05-20 23:00:00,
2013-05-20 19:05:00,76.0,68.8,30.06,NE,45,2.2,4.1,79,0.00,,,0.00,JAVA,2013-05-20 23:05:00,
2013-05-20 19:10:00,75.9,68.9,30.07,North,0,2.3,3.7,79,0.00,,,0.00,JAVA,2013-05-20 23:10:00,
2013-05-20 19:15:00,75.8,69.0,30.07,East,90,1.8,2.6,80,0.00,,,0.00,JAVA,2013-05-20 23:15:00,
2013-05-20 19:20:00,75.7,69.0,30.07,SE,135,1.8,2.9,80,0.00,,,0.00,JAVA,2013-05-20 23:20:00,
2013-05-20 19:26:00,75.5,69.1,30.07,ESE,112,2.4,3.8,80,0.00,,,0.00,JAVA,2013-05-20 23:26:00,
2013-05-20 19:31:00,75.7,69.1,30.07,SE,135,1.4,3.1,81,0.00,,,0.00,JAVA,2013-05-20 23:31:00,
2013-05-20 19:36:00,75.5,69.2,30.08,SE,135,1.2,3.0,81,0.00,,,0.00,JAVA,2013-05-20 23:36:00,
2013-05-20 19:41:00,75.4,69.3,30.08,East,90,2.0,3.4,81,0.00,,,0.00,JAVA,2013-05-20 23:41:00,
2013-05-20 19:46:00,75.4,69.3,30.08,East,90,2.6,4.1,82,0.00,,,0.00,JAVA,2013-05-20 23:46:00,
2013-05-20 19:51:00,75.5,69.4,30.08,SSE,157,2.1,3.3,82,0.00,,,0.00,JAVA,2013-05-20 23:51:00,
2013-05-20 19:56:00,75.5,69.5,30.09,ESE,112,2.2,3.8,82,0.00,,,0.00,JAVA,2013-05-20 23:56:00,
2013-05-20 20:01:00,75.5,69.5,30.09,ESE,112,1.5,2.5,82,0.00,,,0.00,JAVA,2013-05-21 00:01:00,
2013-05-20 20:06:00,75.7,69.6,30.09,ESE,112,1.3,2.2,82,0.00,,,0.00,JAVA,2013-05-21 00:06:00,
2013-05-20 20:11:00,75.5,69.6,30.09,East,90,1.1,2.3,82,0.00,,,0.00,JAVA,2013-05-21 00:11:00,
2013-05-20 20:16:00,75.4,69.7,30.09,ESE,112,0.9,1.4,82,0.00,,,0.00,JAVA,2013-05-21 00:16:00,
2013-05-20 20:21:00,75.4,69.7,30.09,ENE,67,0.3,1.2,82,0.00,,,0.00,JAVA,2013-05-21 00:21:00,
2013-05-20 20:26:00,75.2,69.7,30.10,SE,135,0.0,0.2,82,0.00,,,0.00,JAVA,2013-05-21 00:26:00,
2013-05-20 20:31:00,75.1,69.6,30.10,West,270,0.0,0.1,82,0.00,,,0.00,JAVA,2013-05-21 00:31:00,
2013-05-20 20:36:00,74.9,69.6,30.11,West,270,0.0,0.0,82,0.00,,,0.00,JAVA,2013-05-21 00:36:00,
2013-05-20 20:41:00,74.5,69.5,30.10,NE,45,0.0,0.0,82,0.00,,,0.00,JAVA,2013-05-21 00:41:00,
2013-05-20 20:46:00,74.2,69.4,30.10,NE,45,0.0,0.0,82,0.00,,,0.00,JAVA,2013-05-21 00:46:00,
2013-05-20 20:51:00,74.1,69.3,30.10,NE,45,0.0,0.0,82,0.00,,,0.00,JAVA,2013-05-21 00:51:00,
2013-05-20 20:57:00,74.3,69.2,30.10,NE,45,0.0,0.0,83,0.00,,,0.00,JAVA,2013-05-21 00:57:00,
2013-05-20 21:02:00,74.2,69.0,30.10,NE,45,0.0,0.0,83,0.00,,,0.00,JAVA,2013-05-21 01:02:00,
2013-05-20 21:07:00,74.0,68.9,30.09,SE,135,0.0,0.0,83,0.00,,,0.00,JAVA,2013-05-21 01:07:00,
2013-05-20 21:12:00,73.9,68.8,30.09,NE,45,0.0,0.1,83,0.00,,,0.00,JAVA,2013-05-21 01:12:00,
2013-05-20 21:17:00,73.7,68.7,30.09,NE,45,0.0,0.0,83,0.00,,,0.00,JAVA,2013-05-21 01:17:00,
2013-05-20 21:22:00,73.6,68.6,30.09,East,90,0.0,0.0,83,0.00,,,0.00,JAVA,2013-05-21 01:22:00,
2013-05-20 21:27:00,73.4,68.5,30.08,East,90,0.1,0.8,84,0.00,,,0.00,JAVA,2013-05-21 01:27:00,
2013-05-20 21:32:00,73.4,68.5,30.08,NE,45,0.6,1.1,84,0.00,,,0.00,JAVA,2013-05-21 01:32:00,
2013-05-20 21:37:00,73.5,68.5,30.07,East,90,1.1,1.6,85,0.00,,,0.00,JAVA,2013-05-21 01:37:00,
2013-05-20 21:42:00,73.5,68.5,30.07,ESE,112,2.2,3.1,85,0.00,,,0.00,JAVA,2013-05-21 01:42:00,
2013-05-20 21:47:00,73.6,68.6,30.07,East,90,2.1,3.0,86,0.00,,,0.00,JAVA,2013-05-21 01:47:00,
2013-05-20 21:52:00,73.6,68.7,30.06,ESE,112,1.6,2.0,87,0.00,,,0.00,JAVA,2013-05-21 01:52:00,
2013-05-20 21:57:00,73.7,68.8,30.07,ENE,67,1.6,2.7,87,0.00,,,0.00,JAVA,2013-05-21 01:57:00,
2013-05-20 22:02:00,73.7,69.0,30.06,ESE,112,1.1,1.8,88,0.00,,,0.00,JAVA,2013-05-21 02:02:00,
2013-05-20 22:07:00,73.9,69.2,30.07,SE,135,1.6,3.4,88,0.00,,,0.00,JAVA,2013-05-21 02:07:00,
2013-05-20 22:12:00,73.9,69.4,30.07,East,90,0.8,1.9,89,0.00,,,0.00,JAVA,2013-05-21 02:12:00,
2013-05-20 22:17:00,73.9,69.6,30.07,ENE,67,0.9,2.4,89,0.00,,,0.00,JAVA,2013-05-21 02:17:00,
2013-05-20 22:23:00,74.0,69.9,30.07,South,180,1.2,2.5,89,0.00,,,0.00,JAVA,2013-05-21 02:23:00,
2013-05-20 22:28:00,74.0,70.1,30.07,ESE,112,1.0,1.9,90,0.00,,,0.00,JAVA,2013-05-21 02:28:00,
2013-05-20 22:33:00,73.9,70.3,30.08,NE,45,0.3,0.7,90,0.00,,,0.00,JAVA,2013-05-21 02:33:00,
2013-05-20 22:38:00,73.9,70.4,30.08,East,90,0.8,2.0,90,0.00,,,0.00,JAVA,2013-05-21 02:38:00,
2013-05-20 22:43:00,74.0,70.5,30.08,ESE,112,1.0,1.8,90,0.00,,,0.00,JAVA,2013-05-21 02:43:00,
2013-05-20 22:48:00,74.0,70.6,30.08,East,90,0.5,1.3,90,0.00,,,0.00,JAVA,2013-05-21 02:48:00,
2013-05-20 22:53:00,74.0,70.7,30.08,SE,135,1.0,2.0,90,0.00,,,0.00,JAVA,2013-05-21 02:53:00,
2013-05-20 22:58:00,74.0,70.7,30.08,ESE,112,1.3,2.2,90,0.00,,,0.00,JAVA,2013-05-21 02:58:00,
2013-05-20 23:03:00,74.0,70.7,30.09,SW,225,1.2,2.0,89,0.00,,,0.00,JAVA,2013-05-21 03:03:00,
2013-05-20 23:08:00,74.1,70.7,30.09,East,90,1.7,2.7,89,0.00,,,0.00,JAVA,2013-05-21 03:08:00,
2013-05-20 23:13:00,74.3,70.7,30.09,SE,135,1.7,2.7,89,0.00,,,0.00,JAVA,2013-05-21 03:13:00,
2013-05-20 23:18:00,74.4,70.8,30.09,SE,135,1.4,2.6,89,0.00,,,0.00,JAVA,2013-05-21 03:18:00,
2013-05-20 23:23:00,74.5,70.8,30.09,East,90,1.4,3.2,89,0.00,,,0.00,JAVA,2013-05-21 03:23:00,
2013-05-20 23:28:00,74.6,70.9,30.09,East,90,2.2,3.5,89,0.00,,,0.00,JAVA,2013-05-21 03:28:00,
2013-05-20 23:33:00,74.9,71.0,30.08,ESE,112,2.6,4.0,89,0.00,,,0.00,JAVA,2013-05-21 03:33:00,
2013-05-20 23:38:00,75.0,71.1,30.08,SE,135,2.3,3.9,89,0.00,,,0.00,JAVA,2013-05-21 03:38:00,
2013-05-20 23:43:00,75.0,71.2,30.08,SSE,157,2.1,3.5,89,0.00,,,0.00,JAVA,2013-05-21 03:43:00,
2013-05-20 23:48:00,74.9,71.3,30.07,East,90,2.0,2.6,89,0.00,,,0.00,JAVA,2013-05-21 03:48:00,
2013-05-20 23:54:00,74.8,71.4,30.08,NE,45,1.7,2.9,89,0.00,,,0.00,JAVA,2013-05-21 03:54:00,
2013-05-20 23:59:00,74.6,71.4,30.07,ESE,112,1.4,2.6,89,0.00,,,0.00,JAVA,2013-05-21 03:59:00,